| time (UTC) | temp C | wind direction | speed KPH | gust KPH | rain 1hr cm | rain 24hr cm | rain mn cm | humidity % | barometer mb |
| 20260503050034 | 12 | 360 | 0.0 | 0.0 | 0.03 | 0.13 | 0.13 | 81 | 1011.7 |
| 20260503044534 | 12 | 360 | 0.0 | 0.0 | 0.03 | 0.13 | 0.13 | 80 | 1011.9 |
| 20260503043036 | 12 | 360 | 3.2 | 8.0 | 0.05 | 0.13 | 0.13 | 79 | 1011.7 |
| 20260503041533 | 12 | 360 | 3.2 | 8.0 | 0.08 | 0.13 | 0.13 | 82 | 1011.4 |
| 20260503040037 | 12 | 360 | 1.6 | 6.4 | 0.05 | 0.10 | 0.10 | 81 | 1011.0 |
| 20260503034531 | 12 | 360 | 0.0 | 1.6 | 0.05 | 0.10 | 0.10 | 80 | 1011.2 |
| 20260503033030 | 12 | 360 | 0.0 | 12.9 | 0.03 | 0.08 | 0.08 | 71 | 1011.3 |
| 20260503031526 | 13 | 360 | 4.8 | 8.0 | 0.00 | 0.05 | 0.05 | 67 | 1011.2 |
| 20260503030027 | 13 | 360 | 0.0 | 6.4 | 0.00 | 0.05 | 0.05 | 62 | 1011.2 |
| 20260503024523 | 14 | 360 | 1.6 | 8.0 | 0.00 | 0.05 | 0.05 | 59 | 1010.6 |
| 20260503023024 | 14 | 360 | 1.6 | 12.9 | 0.00 | 0.05 | 0.05 | 59 | 1010.1 |
| 20260503021522 | 14 | 360 | 3.2 | 12.9 | 0.00 | 0.05 | 0.05 | 59 | 1009.7 |
| 20260503020022 | 15 | 360 | 8.0 | 16.1 | 0.00 | 0.05 | 0.05 | 58 | 1009.7 |
| 20260503014524 | 15 | 360 | 8.0 | 16.1 | 0.00 | 0.05 | 0.05 | 58 | 1009.5 |
| 20260503013022 | 16 | 360 | 9.7 | 16.1 | 0.00 | 0.05 | 0.05 | 57 | 1009.4 |
| 20260503011523 | 16 | 360 | 6.4 | 11.3 | 0.03 | 0.05 | 0.05 | 54 | 1009.3 |
| 20260503010025 | 16 | 360 | 1.6 | 16.1 | 0.05 | 0.05 | 0.05 | 56 | 1009.3 |
| 20260503004519 | 15 | 360 | 8.0 | 29.0 | 0.05 | 0.05 | 0.05 | 55 | 1009.4 |
| 20260503003017 | 15 | 360 | 9.7 | 17.7 | 0.05 | 0.05 | 0.05 | 56 | 1009.7 |
| 20260503001516 | 18 | 360 | 12.9 | 30.6 | 0.03 | 0.03 | 0.03 | 44 | 1008.7 |
| 20260503000016 | 20 | 360 | 8.0 | 17.7 | 0.00 | 0.00 | 0.00 | 30 | 1008.1 |
| 20260502234524 | 20 | 360 | 1.6 | 12.9 | 0.00 | 0.00 | 0.00 | 29 | 1008.1 |
| 20260502233015 | 20 | 360 | 3.2 | 30.6 | 0.00 | 0.00 | 0.00 | 35 | 1008.3 |
| 20260502231513 | 22 | 360 | 6.4 | 16.1 | 0.00 | 0.00 | 0.00 | 26 | 1008.1 |
| 20260502230012 | 23 | 360 | 4.8 | 14.5 | 0.00 | 0.00 | 0.00 | 25 | 1007.9 |
| 20260502224512 | 23 | 360 | 1.6 | 8.0 | 0.00 | 0.00 | 0.00 | 25 | 1008.1 |
| 20260502223009 | 23 | 360 | 4.8 | 12.9 | 0.00 | 0.00 | 0.00 | 24 | 1008.3 |
| 20260502221507 | 22 | 360 | 0.0 | 9.7 | 0.00 | 0.00 | 0.00 | 26 | 1008.4 |
| 20260502220006 | 22 | 360 | 3.2 | 11.3 | 0.00 | 0.00 | 0.00 | 24 | 1008.7 |
| 20260502214513 | 22 | 360 | 1.6 | 17.7 | 0.00 | 0.00 | 0.00 | 24 | 1008.9 |
| 20260502213003 | 22 | 360 | 17.7 | 25.7 | 0.00 | 0.00 | 0.00 | 23 | 1009.1 |
| 20260502211507 | 22 | 360 | 9.7 | 16.1 | 0.00 | 0.00 | 0.00 | 25 | 1009.1 |
| 20260502210007 | 22 | 360 | 0.0 | 9.7 | 0.00 | 0.00 | 0.00 | 25 | 1009.2 |
| 20260502204504 | 23 | 360 | 0.0 | 11.3 | 0.00 | 0.00 | 0.00 | 25 | 1009.3 |
| 20260502203104 | 22 | 360 | 1.6 | 12.9 | 0.00 | 0.00 | 0.00 | 26 | 1009.3 |
| 20260502201559 | 22 | 360 | 4.8 | 12.9 | 0.00 | 0.00 | 0.00 | 28 | 1009.4 |
| 20260502200059 | 24 | 360 | 0.0 | 17.7 | 0.00 | 0.00 | 0.00 | 31 | 1009.5 |
| 20260502194556 | 24 | 360 | 6.4 | 14.5 | 0.00 | 0.00 | 0.00 | 22 | 1009.6 |
| 20260502193055 | 25 | 360 | 9.7 | 20.9 | 0.00 | 0.00 | 0.00 | 21 | 1009.8 |
| 20260502191554 | 26 | 360 | 4.8 | 14.5 | 0.00 | 0.00 | 0.00 | 20 | 1009.9 |
| 20260502190051 | 25 | 360 | 1.6 | 12.9 | 0.00 | 0.00 | 0.00 | 21 | 1009.9 |
| 20260502184556 | 25 | 360 | 0.0 | 6.4 | 0.00 | 0.00 | 0.00 | 22 | 1010.0 |
| 20260502183046 | 22 | 360 | 0.0 | 6.4 | 0.00 | 0.00 | 0.00 | 24 | 1010.2 |
| 20260502181545 | 21 | 360 | 0.0 | 1.6 | 0.00 | 0.00 | 0.00 | 26 | 1010.4 |
| 20260502163032 | 17 | 360 | 0.0 | 3.2 | 0.00 | 0.00 | 0.00 | 32 | 1010.9 |
| 20260502161529 | 17 | 360 | 0.0 | 6.4 | 0.00 | 0.00 | 0.00 | 33 | 1011.0 |
| 20260502151524 | 12 | 360 | 0.0 | 0.0 | 0.00 | 0.00 | 0.00 | 43 | 1011.5 |
| 20260502123015 | 7 | 360 | 0.0 | 0.0 | 0.00 | 0.00 | 0.00 | 55 | 1010.7 |
| 20260502121533 | 7 | 360 | 0.0 | 0.0 | 0.00 | 0.00 | 0.00 | 52 | 1010.6 |
| 20260502114509 | 7 | 360 | 0.0 | 0.0 | 0.00 | 0.00 | 0.00 | 48 | 1010.7 |
| 20260502113008 | 7 | 360 | 0.0 | 0.0 | 0.00 | 0.00 | 0.00 | 50 | 1010.7 |
| 20260502111506 | 8 | 360 | 0.0 | 0.0 | 0.00 | 0.00 | 0.00 | 51 | 1010.7 |
| 20260502110004 | 8 | 360 | 0.0 | 0.0 | 0.00 | 0.00 | 0.00 | 50 | 1010.7 |
| 20260502104501 | 8 | 360 | 0.0 | 0.0 | 0.00 | 0.00 | 0.00 | 47 | 1010.7 |
| 20260502103110 | 9 | 360 | 0.0 | 0.0 | 0.00 | 0.00 | 0.00 | 45 | 1010.7 |
| 20260502101611 | 9 | 360 | 0.0 | 0.0 | 0.00 | 0.00 | 0.00 | 46 | 1010.5 |
| 20260502070027 | 12 | 360 | 0.0 | 1.6 | 0.00 | 0.00 | 0.00 | 31 | 1011.8 |
| 20260502064528 | 12 | 360 | 0.0 | 0.0 | 0.00 | 0.00 | 0.00 | 29 | 1011.8 |
| 20260502063029 | 13 | 360 | 0.0 | 0.0 | 0.00 | 0.00 | 0.00 | 31 | 1011.8 |
| 20260502061524 | 13 | 360 | 0.0 | 0.0 | 0.00 | 0.00 | 0.00 | 28 | 1011.8 |
| 20260502060024 | 14 | 360 | 0.0 | 0.0 | 0.00 | 0.00 | 0.00 | 26 | 1012.0 |
| 20260502054532 | 14 | 360 | 0.0 | 0.0 | 0.00 | 0.00 | 0.00 | 25 | 1011.9 |
| 20260502053025 | 15 | 360 | 0.0 | 0.0 | 0.00 | 0.00 | 0.00 | 23 | 1011.9 |
| 20260502051523 | 16 | 360 | 0.0 | 0.0 | 0.00 | 0.00 | 0.00 | 21 | 1011.9 |